Meteo Giornale » Osservazioni meteo Kazakhstan » Atyrau
ore: 11:00 - Osservazioni Meteo Atyrau
Lat. 47° 7' N Lon. 51° 50' E Alt. -22 metri s.l.m.
24 °C
Sereno
Temp. 24 Ore
13 °C
25 °C
Est/Sud-Est
10.8 Km/h
Dew point -3 °C
Umidità 16 %
Visibilità 10 Km
Il sole sorge alle ore 06:51
Il sole tramonta alle ore 20:13
| Data e Ora | Cielo e Fenomeni | T °C | DP °C | Um. % | Pres. hPa | Vis. km | Vento km/h | |
|---|---|---|---|---|---|---|---|---|
| Oggi h: 11:00 | Sereno | 24 | -3 | 16 | 1023 | 10 | E/SE 10.8 | |
| Oggi h: 10:30 | Sereno | 24 | -3 | 16 | 1023 | 10 | E/SE 14.4 | |
| Oggi h: 10:00 | Sereno | 23 | -4 | 16 | 1022 | 10 | E/SE 14.4 | |
| Oggi h: 09:30 | Sereno | 22 | -4 | 17 | 1022 | 10 | E/SE 14.4 | |
| Oggi h: 09:00 | Sereno | 20 | -3 | 20 | 1022 | 10 | N 7.2 | |
| Oggi h: 08:30 | Sereno | 18 | -4 | 22 | 1022 | 10 | E 10.8 | |
| Oggi h: 08:00 | Sereno | 16 | -3 | 26 | 1022 | 10 | E 10.8 | |
| Oggi h: 07:30 | Sereno | 14 | -3 | 30 | 1022 | 10 | E 10.8 | |
| Oggi h: 07:00 | Sereno | 13 | -4 | 30 | 1022 | 10 | N 7.2 | |
| Oggi h: 06:30 | Sereno | 14 | -4 | 28 | 1022 | 10 | E 10.8 | |
| Oggi h: 06:00 | Sereno | 14 | -4 | 28 | 1022 | 10 | E 14.4 | |
| Oggi h: 05:30 | Sereno | 13 | -3 | 32 | 1022 | 10 | E 14.4 | |
| Oggi h: 05:00 | Sereno | 13 | -3 | 32 | 1022 | 10 | E 14.4 | |
| Oggi h: 04:30 | Sereno | 13 | -3 | 32 | 1022 | 10 | E 14.4 | |
| Oggi h: 04:00 | Sereno | 14 | -3 | 30 | 1022 | 10 | E 18 | |
| Oggi h: 03:30 | Sereno | 14 | -4 | 28 | 1022 | 10 | E 18 | |
| Oggi h: 03:00 | Sereno | 14 | -3 | 30 | 1022 | 10 | E 14.4 | |
| Oggi h: 02:30 | Sereno | 14 | -2 | 32 | 1022 | 10 | E 14.4 | |
| Oggi h: 02:00 | Sereno | 14 | -2 | 32 | 1022 | 10 | E/NE 10.8 | |
| Oggi h: 01:30 | Sereno | 15 | -2 | 30 | 1022 | 10 | E 10.8 | |
| Oggi h: 01:00 | Sereno | 15 | -2 | 30 | 1022 | 10 | E/NE 10.8 | |
| Oggi h: 00:30 | Sereno | 17 | -2 | 27 | 1022 | 10 | E/NE 10.8 | |
| Oggi h: 00:00 | Sereno | 16 | -1 | 31 | 1022 | 10 | N 7.2 | |
| Ieri h: 23:30 | Sereno | 16 | -3 | 26 | 1022 | 10 | N 7.2 | |
| Ieri h: 23:00 | Sereno | 18 | -4 | 22 | 1022 | 10 | N 7.2 | |
| Ieri h: 22:30 | Sereno | 18 | -3 | 23 | 1022 | 10 | N 7.2 | |
| Ieri h: 22:00 | Sereno | 19 | -4 | 20 | 1022 | 10 | N 7.2 | |
| Ieri h: 21:30 | Sereno | 19 | -4 | 20 | 1022 | 10 | N 7.2 | |
| Ieri h: 21:00 | Sereno | 20 | -5 | 18 | 1022 | 10 | N 7.2 | |
| Ieri h: 20:30 | Sereno | 22 | -5 | 15 | 1022 | 10 | E/NE 10.8 | |
| Ieri h: 20:00 | Sereno | 23 | -5 | 14 | 1021 | 10 | E/NE 10.8 | |
| Ieri h: 19:30 | Sereno | 24 | -6 | 13 | 1021 | 10 | E 10.8 | |
| Ieri h: 19:00 | Sereno | 25 | -5 | 13 | 1021 | 10 | E 14.4 | |
| Ieri h: 18:30 | Sereno | 25 | -5 | 13 | 1021 | 10 | E/NE 18 | |
| Ieri h: 18:00 | Sereno | 25 | -5 | 13 | 1021 | 10 | E/NE 18 | |
| Ieri h: 17:30 | Sereno | 25 | -5 | 13 | 1021 | 10 | E 14.4 | |
| Ieri h: 17:00 | Sereno | 25 | -4 | 14 | 1021 | 10 | E 10.8 | |
| Ieri h: 16:30 | Sereno | 25 | -4 | 14 | 1022 | 10 | E/NE 18 | |
| Ieri h: 16:00 | Sereno | 25 | -4 | 14 | 1022 | 10 | E 21.6 | |
| Ieri h: 15:30 | Sereno | 25 | -5 | 13 | 1022 | 10 | E/NE 18 | |
| Ieri h: 15:00 | Sereno | 25 | -4 | 14 | 1022 | 10 | E 18 | |
| Ieri h: 14:30 | Sereno | 25 | -4 | 14 | 1022 | 10 | E/NE 14.4 | |
| Ieri h: 14:00 | Sereno | 24 | -4 | 15 | 1023 | 10 | NE 18 | |
| Ieri h: 13:30 | Sereno | 23 | -3 | 17 | 1023 | 10 | E/SE 14.4 | |
| Ieri h: 13:00 | Sereno | 23 | -4 | 16 | 1023 | 10 | E 21.6 | |
| Ieri h: 12:30 | Sereno | 23 | -3 | 17 | 1023 | 10 | E 25.2 | |
| Ieri h: 12:00 | Sereno | 23 | -3 | 17 | 1023 | 10 | E/NE 21.6 | |



